Weather History for Jacksonville, IL

Change the Weather History Date:

Sunday, October 7, 2012

  Actual Average (KSPI) Record (KSPI)
Temperature  
Mean Temperature 44 °F 58 °F  
Max Temperature 53 °F 70 °F 91 °F (1963)
Min Temperature 35 °F 46 °F 25 °F (1952)
Degree Days  
Heating Degree Days 21 8  
Month to date heating degree days 51  
Since 1 July heating degree days 132  
Cooling Degree Days 0 1  
Month to date cooling degree days 9  
Year to date cooling degree days 1108  
Moisture  
Dew Point 32 °F    
Average Humidity 65    
Maximum Humidity 91    
Minimum Humidity 36    
Precipitation  
Precipitation 0.13 in 0.09 in 2.27 in (1984)
Month to date precipitation 0.69  
Year to date precipitation 29.24  
Snow  
Snow 0.00 in 0.00 in 0.00 in ()
Month to date snowfall 0.0  
Since 1 July snowfall 0.0  
Since 1 September snowfall 0.0  
Snow Depth -    
Sea Level Pressure  
Sea Level Pressure 30.22 in    
Wind  
Wind Speed 5 mph (West)    
Max Wind Speed 12 mph    
Max Gust Speed 18 mph    
Visibility 10 miles    
Events      
T = Trace of Precipitation, MM = Missing Value Source: NWS Daily Summary

Daily Weather History Graph

Daily Weather History Graph

Search for Another Location

Airport:

Trip Planner

Search our weather history database for the weather conditions in past years. The results will help you decide how hot, cold, wet, or windy it might be!

Date:

Astronomy

Oct. 07, 2012 Rise Set
Actual Time 7:03 AM CDT 6:33 PM CDT
Civil Twilight 6:36 AM CDT 6:59 PM CDT
Nautical Twilight 6:05 AM CDT 7:31 PM CDT
Astronomical Twilight 5:33 AM CDT 8:02 PM CDT
Moon 11:45 PM CDT (10/7) 1:40 PM CDT (10/7)
Length of Visible Light 12h 23m
Length of Day
11h 29m
Waning Gibbous, 56% of the Moon is Illuminated
Oct 7
Waning Gibbous
Oct 8
Last Quarter
Oct 15
New
Oct 21
First Quarter
Oct 29
Full

Hourly Weather History & Observations

Time (CDT) Temp. Windchill Dew Point Humidity Pressure Visibility Wind Dir Wind Speed Gust Speed Precip Events Conditions
12:15 AM 42.4 °F 39.6 °F 36.7 °F 80% 30.24 in 10.0 mi WNW 4.6 mph - N/A   Overcast
12:35 AM 42.8 °F 41.1 °F 36.3 °F 78% 30.24 in 10.0 mi West 3.5 mph - N/A   Overcast
12:55 AM 42.6 °F 40.9 °F 36.9 °F 80% 30.24 in 10.0 mi West 3.5 mph - N/A   Overcast
1:15 AM 42.4 °F 40.7 °F 37.4 °F 82% 30.24 in 10.0 mi West 3.5 mph - 0.01 in   Overcast
1:35 AM 42.3 °F 40.5 °F 36.7 °F 81% 30.24 in 10.0 mi WNW 3.5 mph - 0.01 in   Overcast
1:55 AM 41.4 °F 38.4 °F 36.1 °F 82% 30.23 in 10.0 mi NNW 4.6 mph - 0.01 in   Mostly Cloudy
2:15 AM 42.1 °F 39.2 °F 35.2 °F 77% 30.24 in 10.0 mi NW 4.6 mph - N/A   Scattered Clouds
2:35 AM 41.5 °F 38.6 °F 35.6 °F 79% 30.23 in 10.0 mi NW 4.6 mph - N/A   Mostly Cloudy
2:55 AM 41.4 °F 38.4 °F 34.9 °F 78% 30.23 in 10.0 mi NW 4.6 mph - N/A   Overcast
3:15 AM 40.8 °F 38.8 °F 34.0 °F 77% 30.23 in 10.0 mi West 3.5 mph - N/A   Scattered Clouds
3:35 AM 38.7 °F 35.2 °F 34.2 °F 84% 30.23 in 10.0 mi West 4.6 mph - N/A   Mostly Cloudy
3:55 AM 39.4 °F 37.2 °F 34.2 °F 82% 30.23 in 10.0 mi West 3.5 mph - N/A   Mostly Cloudy
4:15 AM 40.3 °F 37.1 °F 34.0 °F 78% 30.23 in 10.0 mi West 4.6 mph - N/A   Scattered Clouds
4:35 AM 39.7 °F 37.6 °F 34.2 °F 80% 30.23 in 10.0 mi West 3.5 mph - N/A   Scattered Clouds
4:55 AM 39.7 °F 37.6 °F 34.7 °F 82% 30.23 in 10.0 mi WSW 3.5 mph - N/A   Scattered Clouds
5:15 AM 39.7 °F 37.6 °F 34.7 °F 82% 30.23 in 10.0 mi WSW 3.5 mph - 0.01 in   Mostly Cloudy
5:35 AM 39.6 °F - 34.9 °F 83% 30.23 in 10.0 mi Calm Calm - 0.01 in   Overcast
5:55 AM 39.2 °F 37.0 °F 34.7 °F 84% 30.23 in 10.0 mi West 3.5 mph - 0.01 in   Mostly Cloudy
6:15 AM 38.3 °F 34.8 °F 34.9 °F 87% 30.24 in 10.0 mi West 4.6 mph - N/A   Overcast
6:35 AM 37.8 °F 34.2 °F 34.2 °F 87% 30.23 in 10.0 mi West 4.6 mph - N/A   Mostly Cloudy
6:55 AM 36.1 °F 32.3 °F 33.3 °F 89% 30.24 in 10.0 mi West 4.6 mph - N/A   Clear
7:15 AM 35.6 °F 31.7 °F 32.9 °F 90% 30.24 in 10.0 mi West 4.6 mph - N/A   Clear
7:35 AM 36.5 °F 32.7 °F 34.0 °F 91% 30.24 in 10.0 mi West 4.6 mph - 0.01 in   Clear
7:55 AM 39.0 °F 34.0 °F 35.6 °F 88% 30.25 in 10.0 mi WNW 6.9 mph - 0.01 in   Mostly Cloudy
8:15 AM 40.1 °F 36.1 °F 35.1 °F 82% 30.25 in 10.0 mi West 5.8 mph - N/A   Overcast
8:35 AM 41.0 °F 38.0 °F 34.3 °F 77% 30.26 in 10.0 mi WNW 4.6 mph - N/A   Mostly Cloudy
8:55 AM 42.6 °F 37.8 °F 34.2 °F 72% 30.26 in 10.0 mi WNW 8.1 mph - 0.01 in   Scattered Clouds
9:15 AM 43.5 °F 40.1 °F 34.2 °F 70% 30.26 in 10.0 mi WNW 5.8 mph - N/A   Clear
9:35 AM 45.0 °F 41.2 °F 33.1 °F 63% 30.27 in 10.0 mi WNW 6.9 mph - N/A   Clear
9:55 AM 45.9 °F 41.7 °F 32.2 °F 59% 30.27 in 10.0 mi WNW 8.1 mph - N/A   Clear
10:15 AM 47.1 °F - 31.1 °F 54% 30.27 in 10.0 mi NW 8.1 mph - N/A   Clear
10:35 AM 47.5 °F - 29.3 °F 49% 30.28 in 10.0 mi West 3.5 mph - N/A   Scattered Clouds
10:55 AM 47.3 °F - 29.7 °F 50% 30.28 in 10.0 mi NW 10.4 mph - 0.01 in   Scattered Clouds
11:15 AM 47.5 °F - 27.7 °F 46% 30.28 in 10.0 mi West 3.5 mph - N/A   Mostly Cloudy
11:35 AM 48.7 °F - 27.5 °F 44% 30.27 in 10.0 mi NW 11.5 mph - N/A   Mostly Cloudy
11:55 AM 50.4 °F - 28.0 °F 42% 30.27 in 10.0 mi West 11.5 mph 18.4 mph N/A   Scattered Clouds
12:15 PM 51.1 °F - 28.4 °F 42% 30.27 in 10.0 mi West 10.4 mph 17.3 mph 0.01 in   Scattered Clouds
12:35 PM 50.9 °F - 27.9 °F 41% 30.26 in 10.0 mi NW 9.2 mph - 0.01 in   Scattered Clouds
12:55 PM 51.8 °F - 28.6 °F 41% 30.25 in 10.0 mi WNW 9.2 mph 17.3 mph 0.01 in   Scattered Clouds
1:15 PM 51.8 °F - 28.4 °F 41% 30.24 in 10.0 mi WNW 10.4 mph 17.3 mph N/A   Scattered Clouds
1:35 PM 52.2 °F - 28.0 °F 39% 30.23 in 10.0 mi WNW 5.8 mph 17.3 mph 0.01 in   Clear
1:55 PM 52.7 °F - 27.7 °F 38% 30.23 in 10.0 mi West 9.2 mph - 0.01 in   Clear
2:15 PM 52.9 °F - 27.9 °F 38% 30.22 in 10.0 mi WNW 5.8 mph 16.1 mph N/A   Clear
2:35 PM 52.7 °F - 27.9 °F 38% 30.22 in 10.0 mi West 11.5 mph - 0.01 in   Clear
2:55 PM 53.2 °F - 27.5 °F 37% 30.21 in 10.0 mi West 9.2 mph 16.1 mph 0.01 in   Clear
3:15 PM 53.6 °F - 27.3 °F 36% 30.20 in 10.0 mi West 6.9 mph - 0.01 in   Clear
3:35 PM 53.1 °F - 27.0 °F 37% 30.19 in 10.0 mi NW 3.5 mph - 0.01 in   Clear
3:55 PM 53.4 °F - 27.0 °F 36% 30.19 in 10.0 mi West 6.9 mph - 0.01 in   Clear
4:15 PM 53.1 °F - 27.1 °F 37% 30.19 in 10.0 mi WNW 8.1 mph - 0.01 in   Clear
4:35 PM 53.6 °F - 27.3 °F 36% 30.18 in 10.0 mi West 10.4 mph - 0.01 in   Clear
4:55 PM 53.2 °F - 26.6 °F 36% 30.18 in 10.0 mi West 4.6 mph - 0.01 in   Clear
5:15 PM 53.1 °F - 27.3 °F 37% 30.18 in 10.0 mi West 6.9 mph - N/A   Clear
5:35 PM 52.7 °F - 27.7 °F 38% 30.18 in 10.0 mi WNW 5.8 mph - 0.01 in   Clear
5:55 PM 52.0 °F - 27.0 °F 38% 30.18 in 10.0 mi West 4.6 mph - 0.01 in   Clear
6:15 PM 50.0 °F - 29.5 °F 45% 30.18 in 10.0 mi West 3.5 mph - N/A   Clear
6:35 PM 47.1 °F - 29.8 °F 51% 30.18 in 10.0 mi West 3.5 mph - N/A   Clear
6:55 PM 45.0 °F - 30.4 °F 57% 30.18 in 10.0 mi Calm Calm - N/A   Clear
7:15 PM 44.6 °F - 31.1 °F 59% 30.18 in 10.0 mi Calm Calm - N/A   Clear
7:35 PM 42.8 °F - 32.0 °F 66% 30.19 in 10.0 mi Calm Calm - N/A   Clear
7:55 PM 40.6 °F - 32.7 °F 73% 30.18 in 10.0 mi Calm Calm - 0.01 in   Clear
8:15 PM 40.1 °F - 32.0 °F 73% 30.19 in 10.0 mi Calm Calm - N/A   Clear
8:35 PM 39.2 °F - 33.8 °F 81% 30.19 in 10.0 mi Calm Calm - N/A   Clear
8:55 PM 38.1 °F 35.7 °F 33.4 °F 83% 30.20 in 10.0 mi South 3.5 mph - N/A   Clear
9:15 PM 36.5 °F 32.7 °F 32.5 °F 86% 30.20 in 10.0 mi South 4.6 mph - N/A   Clear
9:35 PM 36.7 °F - 33.4 °F 88% 30.20 in 10.0 mi Calm Calm - N/A   Clear
9:55 PM 36.5 °F 33.9 °F 32.4 °F 85% 30.19 in 10.0 mi SSE 3.5 mph - N/A   Clear
10:15 PM 38.5 °F 34.1 °F 31.8 °F 77% 30.19 in 10.0 mi South 5.8 mph - N/A   Clear
10:35 PM 39.4 °F 36.1 °F 31.6 °F 74% 30.19 in 10.0 mi South 4.6 mph - 0.01 in   Clear
10:55 PM 40.1 °F 36.1 °F 30.9 °F 70% 30.19 in 10.0 mi South 5.8 mph - 0.01 in   Clear
11:15 PM 40.1 °F 36.9 °F 30.7 °F 69% 30.19 in 10.0 mi South 4.6 mph - N/A   Clear
11:35 PM 40.1 °F 36.1 °F 30.7 °F 69% 30.19 in 10.0 mi South 5.8 mph - N/A   Clear
11:55 PM 40.1 °F 36.1 °F 30.6 °F 69% 30.18 in 10.0 mi South 5.8 mph - N/A   Clear